Location: Casteau
(50.5142°N, 4.0161°E)
Time: 23:54:52
(UTC+00:00)

S-56A Canister/Altair - Pass Details

Date: 05 August 2021
Orbit: 632 x 2500 km, 38.9° (Epoch: 16 September)

Event Time Altitude Azimuth Distance (km) Brightness Sun altitude
Rises 17:00:50 0° 268° (W) 5,773 13.6 20.6°
Reaches altitude 10° 17:04:34 10° 263° (W) 4,926 13.7 20.0°
Maximum altitude 17:18:06 47° 196° (SSW) 3,062 10.9 17.9°
Drops below altitude 10° 17:31:27 10° 129° (SE) 4,859 11.2 15.8°
Sets 17:35:07 0° 124° (SE) 5,690 11.4 15.2°
